User: anonymous   Login
Location: Vulcan
(50.4000°N, 113.2500°W)
Time: 13:51:14
(UTC-07:00)
Language:

Tiros 1 - Orbit

View from above orbital plane
View from above orbital plane
View from above satellite
View from above satellite

Ground track
Ground track

The orbit data is extracted from the following two-line orbital elements,

1    29U 60002B   19320.17074725 -.00000109  00000-0  14853-4 0  9993
2    29  48.3794 239.8630 0023869  34.4602 325.7852 14.74328357187042
Epoch (UTC): 16 November 2019 04:05:52
Eccentricity: 0.0023869
inclination: 48.3794°
perigee height: 630 km
apogee height: 664 km
right ascension of ascending node: 239.8630°
argument of perigee: 34.4602°
revolutions per day: 14.74328357
mean anomaly at epoch: 325.7852°
orbit number at epoch: 18704

The dashed part of the orbit path shows where the satellite is in the earth's shadow,  

DLR